This is the latest recevied weather packets stored in our database for station/object KM4KBD. If no packets are shown the sender has not sent any weather packets the latest 10 day(s).
| Time | Temp. | Humidity | Pressure | Rain* | Wind** | Luminosity | Snow |
|---|---|---|---|---|---|---|---|
| 1777905592 | 15.56° C | 67% | 1019.3 hPa | 0 mm | - | 390 W/m² | - |
| 1777905288 | 15.56° C | 69% | 1019.3 hPa | 0 mm | - | 276 W/m² | - |
| 1777904986 | 15° C | 69% | 1019.5 hPa | 0 mm | - | 424 W/m² | - |
| 1777904683 | 15° C | 70% | 1019.6 hPa | 0 mm | - | 248 W/m² | - |
| 1777904077 | 14.44° C | 72% | 1019.7 hPa | 0 mm | - | 229 W/m² | - |
| 1777903773 | 13.89° C | 72% | 1019.4 hPa | 0 mm | - | 199 W/m² | - |
| 1777903470 | 13.89° C | 72% | 1019.1 hPa | 0 mm | - | 149 W/m² | - |
| 1777903166 | 13.89° C | 72% | 1019.2 hPa | 0 mm | - | 172 W/m² | - |
| 1777902862 | 13.89° C | 73% | 1019.5 hPa | 0 mm | - | 163 W/m² | - |
| 1777901955 | 13.33° C | 75% | 1019.8 hPa | 0 mm | - | 123 W/m² | - |
| 1777901652 | 12.78° C | 74% | 1019.8 hPa | 0 mm | - | 122 W/m² | - |
| 1777901349 | 12.78° C | 75% | 1019.6 hPa | 0 mm | - | 85 W/m² | - |
| 1777901047 | 12.78° C | 76% | 1020.1 hPa | 0 mm | - | 62 W/m² | - |
| 1777900744 | 12.78° C | 75% | 1019.6 hPa | 0 mm | - | 69 W/m² | - |
| 1777900441 | 12.78° C | 76% | 1019.7 hPa | 0 mm | - | 105 W/m² | - |
| 1777900138 | 12.78° C | 77% | 1020 hPa | 0 mm | - | 121 W/m² | - |
| 1777899835 | 12.78° C | 77% | 1019.9 hPa | 0 mm | - | 114 W/m² | - |
| 1777898927 | 12.22° C | 78% | 1019.8 hPa | 0 mm | - | 64 W/m² | - |
| 1777898321 | 12.22° C | 80% | 1020 hPa | 0 mm | - | 97 W/m² | - |
| 1777898018 | 12.22° C | 80% | 1019.8 hPa | 0 mm | - | 85 W/m² | - |
| 1777897714 | 12.78° C | 80% | 1019.9 hPa | 0 mm | - | 71 W/m² | - |
| 1777897411 | 12.22° C | 81% | 1019.7 hPa | 0 mm | - | 115 W/m² | - |
| 1777897107 | 12.22° C | 84% | 1019.5 hPa | 0 mm | - | 128 W/m² | - |
| 1777896803 | 11.67° C | 87% | 1019.3 hPa | 0 mm | - | 114 W/m² | - |
| 1777896500 | 11.11° C | 89% | 1019.4 hPa | 0 mm | - | 100 W/m² | - |
* Rain latest hour (hover to see other rain measurements)
** Current wind speed in m/s (hover to see current wind gust speed)